CAPE
0 0 6 311 63 0 144 153 83 6 1 0 4 53 118 277 163 48 267 181 404 692 624 498 456 702 723 582 455 423 392 322 340 341 318 263 224 190 176 144 153 201 236 350 1146 888 958 985 1563
0 10 177 35 0 0 135 64 46 71 9 69 48 8 136 229 267 300 61 439 742 716 684 633 559 468 558 621 492 365 351 310 351 359 371 331 253 166 105 82 73 99 167 270 693 1168 1301 1252 1253
0 16 16 0 0 17 68 25 32 156 130 116 360 246 275 299 338 334 407 584 620 647 651 686 596 538 513 526 495 395 275 287 312 306 275 276 258 157 57 20 3 9 6 83 267 539 910 1054 1152
0 0 50 6 1 7 126 137 184 41 74 109 190 348 394 458 422 376 402 577 501 528 529 522 447 359 353 373 378 376 364 283 245 199 221 215 174 173 123 68 12 0 0 25 95 86 318 602 850
0 0 0 8 134 199 235 172 73 390 236 128 232 290 210 372 346 380 324 437 510 347 299 243 256 241 251 261 267 245 239 251 258 268 190 134 110 81 63 44 44 0 0 0 30 25 47 86 234
50 0 0 77 162 366 305 328 617 570 412 307 239 227 172 255 249 249 261 408 406 395 298 159 101 48 63 65 57 53 50 39 28 33 55 120 155 79 24 30 47 94 89 3 0 0 7 5 7
47 1 15 147 161 374 302 546 556 823 800 881 382 203 172 236 145 162 202 147 259 347 328 209 112 64 0 0 0 0 0 0 0 0 0 0 7 103 122 139 233 209 275 343 83 28 0 0 0
70 13 4 16 67 226 423 656 720 895 602 705 733 478 143 97 164 129 97 4 0 0 0 0 0 0 0 0 0 0 0 0 0 0 0 0 0 32 17 19 123 82 70 142 416 175 0 0 0
1 7 6 23 97 272 566 489 407 275 154 70 116 93 38 41 118 27 2 0 0 0 0 0 0 0 0 0 0 0 0 0 0 0 0 0 0 0 0 5 13 3 33 170 317 215 63 15 0
0 2 46 148 121 170 691 564 555 336 111 7 3 3 0 29 82 7 0 0 0 0 0 0 0 0 0 0 0 0 2 0 0 0 0 0 0 0 0 0 0 1 18 74 148 301 248 172 74
2 24 55 71 205 358 421 574 424 191 25 18 0 0 0 0 0 0 0 0 0 0 0 0 0 0 0 0 0 0 0 0 0 0 0 0 0 0 36 37 46 66 88 4 66 54 61 233 237
48 143 246 454 480 523 519 557 310 342 5 1 0 0 0 0 0 0 0 0 0 0 0 0 0 0 0 0 0 0 0 0 2 0 7 2 0 0 0 18 34 32 73 65 48 9 0 0 0
3 421 631 694 783 675 689 446 34 4 3 2 1 0 0 0 0 0 0 1 2 0 0 0 8 4 0 4 0 0 1 3 6 1 9 1 4 5 0 0 3 30 26 19 7 42 50 26 1
0 462 649 732 773 798 493 199 390 23 2 1 0 0 0 0 0 0 2 4 11 10 16 27 23 38 8 7 1 0 1 0 0 0 5 1 0 1 1 2 0 6 26 33 36 18 12 35 34
42 166 112 710 682 663 558 568 280 51 2 7 3 0 3 0 0 4 17 11 18 28 28 15 11 16 3 2 0 0 0 0 1 4 12 0 0 0 0 0 1 7 7 27 11 13 17 8 19
1 0 0 48 328 757 574 624 255 44 31 5 9 6 3 1 7 20 20 15 33 26 16 21 5 0 0 0 10 5 14 1 10 14 1 0 0 0 0 0 0 3 38 30 20 4 19 5 32
0 0 0 0 5 125 74 564 356 116 83 7 2 3 1 6 16 38 32 33 21 15 6 0 0 0 0 2 10 20 6 20 23 3 0 0 0 0 0 1 5 1 11 29 24 17 16 17 17
100 11 9 0 18 15 2 670 379 214 174 38 1 0 2 5 25 34 42 12 15 22 2 0 0 0 0 21 3 1 0 13 5 0 0 0 1 3 0 6 4 11 8 13 11 7 15 17 18
143 158 49 0 0 6 798 577 93 221 267 52 8 1 5 17 16 7 8 4 11 19 7 4 0 0 0 3 5 1 2 14 7 13 8 6 6 9 10 2 4 13 18 17 8 5 18 9 26
137 127 24 0 0 83 519 353 204 251 315 174 90 23 2 4 15 0 3 3 0 8 7 0 0 3 1 10 15 4 13 20 11 7 7 15 18 16 11 12 8 11 8 12 5 0 12 54 81
0 8 1 0 0 259 304 41 22 137 415 239 51 20 1 21 6 3 8 5 19 2 2 0 0 0 4 6 5 4 1 4 2 4 17 16 17 10 15 12 5 10 15 6 17 31 43 79 39
8 74 26 40 38 65 21 8 0 6 225 8 3 0 25 23 14 32 27 23 11 2 12 15 0 0 0 0 12 0 8 0 7 15 12 11 46 41 4 6 15 3 15 26 41 51 46 30 15
21 51 18 21 137 44 41 4 0 6 128 71 0 0 0 51 10 2 3 19 22 20 7 8 0 0 0 0 1 2 2 6 8 11 11 2 1 34 28 24 14 7 5 11 51 158 175 74 27
119 124 0 10 238 362 263 95 1 0 24 135 83 25 26 4 4 8 12 21 9 5 1 2 7 0 3 7 19 16 7 10 7 10 2 7 15 23 52 54 55 54 28 49 58 126 108 92 62
14 0 0 0 55 54 168 0 0 67 292 279 312 86 9 11 10 9 11 22 3 10 0 13 1 0 3 13 19 14 12 3 14 6 3 3 12 13 17 0 6 32 14 4 77 129 60 39 36
0 0 5 19 105 13 70 1 0 86 156 116 65 42 59 6 5 1 3 12 13 4 4 1 2 0 16 3 24 24 24 5 13 15 9 12 16 18 11 10 0 44 5 33 19 68 23 2 18
3 2 33 43 57 86 4 3 0 22 140 4 92 144 80 18 8 4 0 4 9 8 5 3 0 6 10 17 12 13 5 1 14 21 8 16 22 44 6 6 3 47 54 14 36 31 32 18 24
0 0 7 33 102 6 7 1 9 40 43 128 282 266 129 55 6 8 7 15 4 1 2 2 0 0 6 12 18 22 14 6 2 7 4 21 27 7 0 5 5 24 95 71 28 43 26 20 63
7 81 115 128 0 44 12 9 1 0 15 9 50 115 84 34 25 2 7 0 3 0 0 10 0 4 12 14 15 22 24 14 12 12 10 12 8 0 10 13 0 4 38 68 17 11 13 30 61
29 73 143 220 124 0 18 2 1 0 0 0 0 2 9 0 14 9 0 1 0 0 0 0 3 3 10 3 22 18 35 43 22 13 11 13 2 0 12 7 1 5 17 25 25 20 17 11 12
CIN
0 0 -85 -50 -79 0 -4 -9 -23 -52 -88 0 -129 -51 -3 -31 -16 -4 -10 -21 -4 0 0 -10 -6 0 0 -2 -21 -23 -28 -32 -23 -20 -18 -21 -23 -28 -31 -39 -48 -51 -55 -41 0 -1 0 0 0
0 -70 -83 -136 0 -6 -4 -15 -11 -22 -58 -51 -64 -75 -42 -11 -4 -2 -48 -4 0 0 -1 -2 -6 -9 -1 0 0 -1 -4 -9 -4 -4 -3 -6 -12 -22 -42 -49 -55 -58 -53 -46 -6 0 0 0 0
0 -63 -60 0 -9 -56 -11 -12 -44 -6 -7 -27 -29 -57 -8 -2 -3 0 -7 -5 -1 -1 0 0 0 0 0 0 0 0 -4 -1 -1 -3 -4 -3 -2 -10 -39 -66 -20 -17 -23 -67 -44 -18 -2 0 0
0 0 -64 -27 -131 -14 -6 -15 -12 -33 -32 -40 -56 -32 -1 -2 -9 -1 -19 -1 -1 -1 0 0 0 0 -1 -2 -1 0 0 -3 -6 -10 -3 -5 -8 -4 -18 -41 -31 0 0 -73 -68 -77 -43 -21 -13
0 0 0 -22 -13 -7 -10 -21 -14 -26 -38 -32 -50 -25 -24 0 -6 -6 -16 -14 -2 -3 -1 -6 -12 -10 -3 -2 -2 -3 -2 -1 -1 0 -7 -14 -17 -22 -32 -44 -36 0 0 0 -77 -94 -86 -86 -72
-74 0 -50 -48 -3 -3 -9 -3 -10 -24 -3 -5 -78 -84 -20 0 -14 -10 -14 -13 -13 -5 -5 -19 -62 -102 -89 -57 -43 -41 -36 -57 -82 -81 -58 -11 -4 -13 -55 -55 -40 -30 -43 -27 0 0 -56 -62 -69
-39 -46 -83 -43 -9 -2 -5 -19 -26 -7 -1 -3 -42 -65 -15 -6 -5 -12 -7 -11 -2 -6 -4 -4 -21 -54 -6 0 0 0 0 0 0 0 0 0 -9 -18 -9 -10 -12 -22 -18 -8 -59 -76 0 0 0
-52 -18 -30 -94 -78 -5 -7 -30 -37 -9 -84 -25 -24 -13 -30 -26 -3 -5 -5 -52 0 0 0 0 0 0 0 0 0 0 0 0 0 0 0 0 0 -26 -10 -4 -8 -28 -39 -26 0 -39 0 0 0
-113 -84 -48 -48 -40 -2 -10 -92 -133 -180 -241 -249 -154 -117 -101 -76 -20 -27 -4 0 0 0 0 0 0 0 0 0 0 0 0 0 0 0 0 0 0 0 0 -22 -40 -55 -51 -39 -7 -14 -55 -70 0
0 -49 -54 -14 -3 -5 -11 -84 -86 -146 -214 -102 -88 -3 0 -80 -9 -5 0 0 0 0 0 0 0 0 0 0 0 0 -1 0 0 0 0 0 0 0 0 0 0 -26 -46 -29 -17 0 -11 -41 -45
-171 -62 -3 -8 -2 -14 -42 -39 -115 -220 -271 -224 0 0 0 0 0 0 0 0 0 0 0 0 0 0 0 0 0 0 0 0 0 0 0 0 0 0 -4 -11 -23 -21 -21 -3 -21 -26 -18 -7 -40
-17 -3 -15 -17 -19 -31 -63 -107 -210 -162 -130 0 0 0 0 0 0 0 0 0 0 0 0 0 0 0 0 0 0 0 0 0 -3 0 -3 -11 0 0 0 -34 -31 -14 -4 -9 -14 -22 0 0 0
-31 -13 -24 -23 -11 -54 -91 -181 -342 0 0 0 -1 0 0 0 0 0 0 -1 -1 0 0 0 -5 -4 0 -1 0 0 0 -2 -5 -2 -3 -13 -3 -30 0 0 -38 -27 -29 -35 -41 -8 -6 -8 -2
0 -13 -17 -19 -28 -19 -161 -266 -156 -148 -1 -1 0 0 0 0 0 0 -3 -6 -4 -7 -5 -1 -7 -2 -3 -2 -1 0 0 0 0 0 -29 -11 -5 -11 -11 -18 0 -60 -12 -30 -47 -40 -24 -6 -5
-118 -54 -179 -3 -3 -13 -69 -61 -140 -242 -1 -1 -2 -2 0 0 0 -5 -4 -4 -8 -8 -8 -9 -6 -16 -2 -2 0 0 0 0 0 -1 -13 0 0 0 0 0 -21 -35 -56 -19 -31 -68 -54 -43 -16
-16 0 0 -77 -87 -9 -36 -47 -135 -162 -142 -1 0 -5 -1 -3 -2 -5 -11 -17 -13 -6 -4 -6 -4 0 0 0 -1 -2 -3 -1 -2 -10 -24 0 0 0 0 0 -4 -39 -3 -17 -8 -38 -32 -27 -19
0 0 0 0 -85 -59 -144 -46 -102 -92 -67 -18 -5 -3 -3 -11 -10 -9 -16 -8 -9 -6 -3 0 0 0 0 -4 -2 -1 -3 -2 -5 -24 0 0 0 0 0 -10 -3 -6 -8 -14 -13 -14 -9 -11 -21
-82 -61 -79 0 -1 -10 -23 -19 -108 -88 -45 -54 -11 -12 -26 -18 -17 -3 -8 -12 -17 -8 -5 0 0 0 0 -1 -4 -2 0 -5 -13 -7 0 0 -2 -3 -2 -10 -14 -14 -4 -6 -13 -10 -20 -12 -18
-12 -91 -209 -83 0 -13 -14 -58 -23 -101 -41 -45 -64 -10 -5 -5 -5 -32 -34 -26 -30 -14 0 -2 0 0 0 -3 -2 -1 -1 -5 -8 -1 -2 -3 -4 -1 -3 -4 -6 -13 -6 -6 -7 -8 -6 -13 -18
-34 -34 -82 0 0 -153 -32 -19 -21 -93 -19 -24 -29 -25 -31 -40 -9 -4 -20 -34 0 -3 -2 0 0 -9 -3 -4 -4 -3 -2 -4 -7 -4 -5 -3 -2 -3 -5 -5 -4 -4 -12 -18 -11 -2 -25 -19 -8
0 -73 -33 0 0 -47 -13 -14 -49 -2 -3 -2 -30 -32 -29 -26 -21 -20 -17 -11 -3 0 -1 0 0 0 -20 -21 -10 -5 -6 -5 -10 -4 -7 -6 -2 -2 -3 -1 -3 -8 -7 -8 -7 -11 -14 -16 -35
-64 -10 -5 -9 -27 -21 -172 -14 0 -25 -5 -74 -68 -23 -28 -25 -13 -9 -2 -5 -4 -3 -3 -19 0 0 0 -1 -9 -2 -2 0 -5 -4 -10 -5 -8 -5 -3 -5 -1 -1 -8 -12 -13 -19 -23 -27 -26
-9 -25 -13 -4 -42 -75 -138 -63 -7 -5 -1 -56 0 0 0 -17 -5 -9 -11 -7 -7 -4 -6 -25 -2 0 0 0 -2 -17 -8 -5 -2 -6 -8 -5 -5 -7 -7 -4 -4 -10 -14 -18 -12 -6 -10 -22 -30
-13 -18 0 -9 -13 -17 -4 -10 0 0 -1 -7 -41 -51 -19 -11 -33 -49 -21 -19 -3 -9 -9 -61 -27 0 -10 -2 -4 -6 -10 -8 -16 -6 0 -6 -12 -6 -9 -7 -6 -10 -11 -12 -11 -7 -11 -14 -20
-14 0 0 0 -21 -66 -57 0 0 -23 -7 -17 -9 -18 -42 -35 -50 -42 -29 -8 -27 -11 0 -11 -18 0 -22 -14 -2 -6 -7 -21 -4 -15 -17 -6 -5 -7 -8 0 -8 -12 -24 -29 -18 -13 -22 -26 -16
0 0 -5 -5 -3 -14 -183 -60 0 -17 -21 -23 -10 -29 -10 -54 -14 -12 -8 -13 -17 -24 -9 -2 -19 0 -2 -23 -3 -4 -1 -6 -2 -6 -9 -11 -7 -5 -5 -6 0 -10 -27 -24 -35 -27 -19 -17 -13
-2 -1 -15 -21 -11 -11 0 -1 -2 -18 -33 -9 -61 -35 -41 -85 -22 -23 -2 -23 -19 -8 -20 -24 0 -3 -10 -6 -4 -5 -2 0 -3 -5 -7 -3 -7 -5 -12 -7 -12 -10 -10 -18 -17 -14 -12 -16 -16
0 0 -46 -15 -15 -37 -18 -12 -21 -7 -4 -4 -5 -6 -17 -39 -25 -28 -23 -18 -10 -40 -51 -31 0 -1 -17 -9 -5 -5 -5 -3 -1 -5 -4 -2 -3 -4 0 -4 -15 -6 -6 -12 -24 -17 -29 -24 -18
-34 -65 -43 -12 0 -14 -6 -1 -3 0 -28 -82 -7 -15 -13 -8 -12 -29 -25 -1 -37 -16 -14 -7 0 -9 -7 -6 -5 -12 -6 -7 -13 -4 -2 -2 -5 0 -2 -9 -14 -14 -4 -7 -11 -11 -12 -11 -9
-119 -93 -25 -19 -1 0 -10 -1 -32 0 0 0 -5 -8 -55 0 -1 -5 -18 -45 0 -1 0 0 -12 -11 -4 -22 -3 -10 -7 -9 -8 -3 -4 -5 -4 0 -6 -4 -3 -14 -13 -7 -5 -14 -5 -6 -4
Wind_Speed
19 19 17 17 19 17 11 15 17 19 20 25 26 23 21 20 15 14 12 17 20 19 18 17 17 19 19 18 18 18 18 18 18 18 18 18 18 18 18 18 18 18 18 18 18 16 14 13 13
18 17 11 20 16 7 13 16 16 19 20 26 26 25 24 21 20 18 19 12 19 20 19 20 20 18 18 18 18 18 18 18 18 18 18 18 18 18 18 18 19 19 18 18 18 17 15 14 14
16 16 13 17 18 13 21 21 19 17 16 19 19 22 21 18 22 17 19 21 21 21 21 21 20 19 19 19 19 19 19 19 19 19 19 18 18 18 18 18 19 19 19 18 18 17 16 15 14
15 15 15 17 22 19 23 21 20 20 23 20 22 20 22 21 17 18 17 20 21 22 22 21 21 21 21 21 21 21 20 20 20 20 20 20 20 19 19 19 19 19 19 19 18 18 16 16 15
14 19 20 14 20 23 21 20 17 19 18 19 21 19 19 20 18 20 20 19 22 23 22 21 21 21 21 21 21 21 22 22 22 22 22 21 20 20 20 20 19 19 19 19 19 18 17 17 17
15 23 17 4 20 22 21 21 22 21 21 20 21 19 18 18 18 20 21 21 21 21 21 21 22 22 22 22 22 22 22 23 23 23 23 23 22 20 19 19 19 20 19 19 19 19 18 18 18
13 16 15 10 17 21 21 20 17 19 18 20 15 16 15 18 18 19 20 23 21 22 21 19 20 21 22 22 22 22 23 23 24 25 26 26 25 22 22 20 20 20 20 20 19 19 19 18 19
16 14 1 4 4 20 21 22 21 18 18 18 18 14 13 14 16 17 19 21 21 23 22 22 21 22 23 22 21 22 22 24 25 25 27 27 26 23 22 19 21 21 21 21 20 18 19 20 20
23 12 14 19 17 17 19 22 22 22 20 21 20 18 15 14 15 16 17 18 19 21 21 22 22 22 22 22 22 21 21 23 24 25 27 27 25 24 23 21 22 23 23 23 22 21 22 22 22
20 12 16 20 20 20 20 20 20 20 21 20 21 20 19 16 15 15 17 19 21 21 20 22 23 23 20 22 23 21 26 27 28 27 29 29 29 26 24 23 22 22 23 23 23 24 25 25 24
19 19 19 19 20 20 21 21 19 20 21 18 17 18 18 18 17 17 18 18 19 21 23 24 24 25 27 27 29 29 28 29 28 30 30 28 30 31 25 21 21 19 20 24 22 23 24 26 24
18 19 18 17 17 18 19 19 21 20 18 19 18 17 17 17 16 16 17 18 19 20 22 23 25 27 28 29 30 32 31 30 29 32 30 29 30 30 30 29 29 26 27 21 22 22 23 26 27
13 18 16 15 16 17 18 20 20 21 19 19 18 17 16 16 16 16 16 16 18 21 22 24 24 26 29 30 31 32 31 31 32 32 31 32 30 30 30 31 31 29 28 26 28 25 21 21 23
3 13 15 13 14 14 15 17 20 17 16 17 16 16 15 15 15 15 16 18 19 21 23 24 24 26 29 32 32 33 32 33 33 31 29 30 30 31 31 31 30 30 29 28 28 27 27 27 26
22 25 27 14 11 10 14 15 17 15 15 15 15 14 15 14 14 15 17 20 21 23 24 26 27 31 34 34 35 34 33 32 28 29 27 29 30 31 31 30 30 29 31 30 29 30 29 31 32
19 21 9 3 24 11 11 11 12 13 13 13 14 14 14 13 15 16 18 19 21 23 26 29 30 33 36 35 32 30 29 29 29 29 28 31 33 32 33 30 29 30 30 28 28 28 31 31 31
15 16 5 8 15 26 20 14 10 10 10 12 11 11 13 14 15 17 18 18 21 24 28 30 31 33 37 33 31 30 31 28 28 28 29 32 33 33 31 32 30 29 29 27 27 26 28 28 30
17 17 4 20 26 25 27 14 6 8 9 9 9 11 11 11 13 16 17 19 22 25 27 29 32 34 33 32 32 33 32 30 30 30 31 31 30 31 30 29 28 28 26 27 28 27 27 28 28
27 27 21 16 16 31 15 5 6 11 8 7 8 9 9 11 13 17 18 19 23 25 27 29 32 33 32 33 33 32 30 30 30 27 30 31 30 30 30 27 29 28 28 27 25 27 27 28 28
31 32 32 22 29 16 9 7 8 12 9 8 7 8 10 11 13 16 18 19 23 24 26 29 31 32 30 32 31 30 29 27 22 28 29 28 29 29 31 31 30 28 27 26 26 25 26 26 25
30 23 26 28 29 18 24 22 32 17 13 13 11 10 11 13 14 15 17 20 23 26 26 28 28 30 30 29 27 28 27 28 27 27 26 28 28 30 29 30 30 29 26 24 24 23 23 24 26
18 14 27 23 21 25 24 31 26 11 8 13 18 9 15 13 14 15 18 22 25 25 25 25 27 28 29 27 27 27 27 28 24 23 25 24 28 29 29 29 30 25 26 25 23 22 22 23 25
28 31 31 27 26 26 27 28 37 12 13 15 17 11 11 14 16 19 22 23 21 23 28 24 26 28 28 24 24 25 27 24 24 24 25 25 26 25 27 27 29 31 29 26 23 14 22 24 24
20 30 36 28 23 33 21 26 34 28 9 16 14 14 12 15 17 19 21 21 20 26 29 25 26 27 27 26 24 23 24 23 23 23 21 23 23 23 17 13 2 8 5 13 9 18 18 19 16
34 43 42 40 34 22 20 27 22 29 23 20 16 16 17 16 16 21 20 19 26 28 29 26 27 28 26 25 25 25 23 20 20 24 22 20 18 17 21 16 17 4 21 6 5 12 15 17 18
37 33 34 35 32 38 28 29 24 23 25 25 20 20 23 20 19 17 21 26 28 29 26 27 27 26 24 25 25 23 22 22 21 19 18 14 16 9 15 19 13 6 2 12 8 5 9 7 8
28 31 33 28 19 25 20 19 21 14 24 23 19 17 22 17 15 21 24 25 26 26 26 25 24 24 23 22 23 23 23 22 19 16 13 15 14 6 19 15 11 7 7 9 3 5 2 4 6
28 30 30 12 20 19 15 28 27 24 29 26 22 23 20 18 19 19 22 23 24 25 23 22 23 23 21 20 19 23 15 20 17 16 13 14 16 12 9 10 11 8 8 4 5 4 7 3 4
29 32 31 23 22 20 21 20 22 29 28 28 28 20 21 21 21 21 25 24 24 24 22 22 24 22 19 21 21 23 19 16 13 12 14 13 14 12 7 7 9 8 7 5 5 6 7 6 7
31 30 29 27 23 20 19 21 20 26 29 27 24 27 25 24 23 24 26 24 24 21 21 23 22 19 17 26 15 26 23 22 18 15 13 14 15 12 9 13 9 8 7 8 10 14 9 7 7
Wind_Direction
219 197 219 283 308 317 37 21 18 19 20 34 38 38 36 14 353 2 349 61 49 35 31 26 26 32 28 22 15 10 7 3 359 355 353 352 351 350 348 345 343 341 339 338 336 343 347 350 348
203 175 159 343 355 247 29 32 13 28 42 54 48 43 28 22 29 19 23 4 34 37 33 31 29 22 17 14 13 10 4 2 359 359 357 355 352 349 349 349 348 346 345 342 341 343 343 342 344
202 206 283 16 33 87 43 38 42 31 31 31 32 19 9 356 23 23 51 46 38 36 36 31 27 21 16 11 8 7 7 4 359 356 355 353 350 347 346 344 342 341 341 341 339 338 339 337 337
203 271 323 67 108 102 51 33 40 41 52 51 54 28 33 5 17 33 26 40 41 40 34 29 26 22 19 17 15 12 6 2 358 351 348 347 343 340 339 339 338 338 339 339 337 335 333 333 330
161 335 300 190 53 65 50 50 33 28 24 22 33 36 26 10 26 31 43 33 39 38 34 25 22 19 15 12 10 9 6 2 359 355 352 347 344 340 336 333 332 333 332 332 332 333 331 328 325
9 21 208 44 49 49 42 35 42 46 45 45 38 35 22 15 20 28 37 46 37 36 32 27 27 24 18 12 9 5 2 359 355 352 351 346 343 343 343 337 334 329 328 326 327 327 326 324 320
5 82 159 25 56 33 39 37 30 37 23 6 49 20 26 15 32 41 41 40 40 37 38 27 23 21 17 11 10 6 2 358 353 347 342 337 334 335 332 333 332 327 323 321 321 320 320 319 316
17 20 298 8 215 51 43 34 29 33 12 23 2 13 18 23 32 40 36 31 20 25 21 22 11 6 2 8 9 6 3 359 352 347 341 335 337 334 332 338 334 330 325 321 318 319 316 314 311
27 332 134 86 57 69 63 37 31 33 34 22 33 31 45 38 31 36 38 35 30 27 25 19 15 13 12 8 6 5 4 2 359 353 346 339 338 334 331 332 328 327 324 320 317 314 311 309 307
46 269 12 71 67 67 59 55 54 38 34 33 37 42 49 47 29 28 21 15 18 16 22 20 12 4 7 4 360 4 352 348 343 345 344 336 335 332 330 328 326 321 320 318 313 310 306 303 303
84 94 41 37 60 56 51 52 53 50 27 37 46 47 40 36 30 23 21 19 14 11 10 13 12 4 355 351 345 345 344 343 343 340 339 340 334 327 330 326 324 325 322 318 314 309 308 305 304
80 38 40 41 45 52 50 39 13 22 41 60 58 54 44 37 35 33 30 23 20 12 11 8 6 357 354 350 347 339 340 342 342 338 339 340 336 329 327 323 322 323 322 316 314 311 309 301 297
319 24 28 36 38 45 54 35 38 46 61 59 56 46 40 40 43 43 39 37 25 16 9 6 6 4 356 351 349 344 343 342 341 339 338 338 337 334 329 325 320 317 320 320 318 313 310 308 306
228 26 7 19 34 47 44 58 30 53 61 56 55 50 46 44 44 42 41 25 19 17 11 4 11 7 359 351 350 347 346 344 340 341 346 344 340 335 331 326 321 317 320 316 312 309 310 309 305
53 12 303 1 25 52 66 40 36 69 74 61 55 55 48 47 50 47 32 20 19 15 6 359 358 355 350 347 345 346 344 345 346 345 349 347 344 339 335 328 322 319 315 314 309 306 305 304 306
352 14 64 185 272 160 157 34 55 80 67 49 58 55 54 52 44 30 29 18 16 6 3 360 355 352 349 348 350 350 350 350 348 350 350 345 340 336 330 328 322 320 320 316 313 307 304 302 300
360 350 346 17 311 262 234 75 58 65 49 35 46 62 50 46 34 28 21 21 15 10 3 0 359 354 351 352 354 353 352 353 353 351 349 344 341 336 331 327 324 323 321 317 313 309 308 304 302
360 8 6 351 4 248 256 360 75 65 20 43 59 56 54 48 34 26 27 24 16 9 5 3 1 358 356 357 355 354 351 353 353 351 347 346 346 343 342 338 331 325 323 321 316 313 310 307 305
347 349 10 5 353 350 11 17 10 16 27 44 59 72 54 47 47 30 20 22 13 9 5 6 2 2 1 357 357 354 353 352 352 357 354 350 350 350 346 342 337 330 325 319 317 315 311 307 306
339 338 340 353 349 4 358 16 51 359 14 64 85 69 53 46 49 35 30 19 11 9 8 6 5 4 3 0 1 1 359 1 8 360 358 358 356 355 351 347 343 337 331 324 318 316 313 311 307
342 339 354 354 353 354 356 346 356 31 47 29 35 48 49 56 61 46 30 21 16 9 6 7 9 7 6 4 7 7 9 8 6 5 4 1 3 359 357 357 355 350 344 336 329 324 318 312 305
10 14 356 354 350 350 354 335 348 6 3 28 52 47 335 65 64 57 36 22 12 10 9 10 12 9 9 11 10 10 12 11 14 12 12 13 9 8 8 3 1 3 353 344 339 332 325 317 303
347 347 349 346 349 338 346 347 354 15 72 53 81 59 72 62 68 38 22 14 17 17 11 13 14 12 13 18 19 16 14 17 18 18 15 17 16 22 16 17 17 351 343 330 339 233 268 284 292
353 344 339 344 346 339 357 357 3 7 51 47 61 72 70 54 40 33 24 24 22 14 13 18 18 17 16 18 20 20 19 22 22 21 26 23 27 30 49 289 307 54 52 279 217 269 260 262 329
343 339 337 337 342 358 16 359 2 353 13 41 58 53 44 37 32 25 31 29 19 14 13 18 16 15 20 21 23 22 25 32 31 23 29 36 41 46 311 298 303 57 46 107 202 135 332 296 298
343 351 350 343 339 323 342 346 352 13 34 42 44 51 36 24 35 42 23 14 9 9 14 16 15 18 23 23 26 30 37 35 34 38 45 55 52 79 277 305 292 282 122 100 124 185 118 289 221
2 359 344 354 269 3 17 45 40 43 35 31 40 26 21 38 38 19 19 16 11 14 17 17 23 22 26 30 30 33 35 40 46 53 64 63 63 116 305 287 282 272 298 129 275 287 216 185 199
6 6 343 340 15 12 14 12 11 22 7 24 23 22 31 34 26 24 18 16 22 23 24 27 24 23 29 33 39 29 49 43 57 60 72 72 70 85 256 262 291 263 277 167 266 185 154 237 230
12 344 343 12 24 17 348 8 26 5 12 7 15 37 38 34 28 27 20 28 21 22 26 25 19 24 34 33 31 30 45 54 69 76 76 79 82 92 168 233 268 267 231 191 251 223 170 192 187
18 3 355 5 14 25 15 6 9 5 6 15 17 9 13 11 16 23 16 17 13 24 27 23 23 34 39 14 49 22 39 48 63 75 87 87 86 108 129 131 231 254 221 268 293 334 298 265 213